| time (UTC) | temp F | wind direction | speed MPH | gust MPH | rain 1hr in | rain 24hr in | rain mn in | humidity % | barometer mb |
| 20260831115519 | 61 | 283 | 0.0 | 0.0 | 0.00 | 0.00 | 0.00 | 66 | 1020.1 |
| 20260831115018 | 61 | 279 | 0.0 | 0.0 | 0.00 | 0.00 | 0.00 | 67 | 1020.2 |
| 20260831114537 | 61 | 279 | 0.0 | 2.0 | 0.00 | 0.00 | 0.00 | 66 | 1020.2 |
| 20260831114019 | 61 | 279 | 0.0 | 5.0 | 0.00 | 0.00 | 0.00 | 65 | 1020.1 |
| 20260831113519 | 61 | 279 | 2.0 | 5.0 | 0.00 | 0.00 | 0.00 | 65 | 1020.2 |
| 20260831113033 | 61 | 279 | 0.0 | 3.0 | 0.00 | 0.00 | 0.00 | 66 | 1020.1 |
| 20260831112518 | 61 | 279 | 0.0 | 0.0 | 0.00 | 0.00 | 0.00 | 67 | 1020.0 |
| 20260831112014 | 62 | 270 | 0.0 | 0.0 | 0.00 | 0.00 | 0.00 | 68 | 1020.0 |
| 20260831111529 | 62 | 279 | 0.0 | 3.0 | 0.00 | 0.00 | 0.00 | 67 | 1020.0 |
| 20260831111015 | 62 | 279 | 0.0 | 5.0 | 0.00 | 0.00 | 0.00 | 66 | 1019.9 |
| 20260831110521 | 62 | 279 | 1.0 | 5.0 | 0.00 | 0.00 | 0.00 | 67 | 1019.9 |
| 20260831110033 | 62 | 287 | 0.0 | 2.0 | 0.00 | 0.00 | 0.00 | 67 | 1019.9 |
| 20260831105517 | 62 | 279 | 0.0 | 2.0 | 0.00 | 0.00 | 0.00 | 66 | 1019.9 |
| 20260831105018 | 62 | 279 | 0.0 | 2.0 | 0.00 | 0.00 | 0.00 | 64 | 1019.7 |
| 20260831104548 | 62 | 279 | 0.0 | 2.0 | 0.00 | 0.00 | 0.00 | 65 | 1019.7 |
| 20260831104021 | 63 | 281 | 0.0 | 2.0 | 0.00 | 0.00 | 0.00 | 65 | 1019.7 |
| 20260831103521 | 63 | 281 | 0.0 | 2.0 | 0.00 | 0.00 | 0.00 | 65 | 1019.7 |
| 20260831103037 | 63 | 282 | 0.0 | 2.0 | 0.00 | 0.00 | 0.00 | 65 | 1019.7 |
| 20260831102521 | 63 | 283 | 0.0 | 2.0 | 0.00 | 0.00 | 0.00 | 65 | 1019.7 |
| 20260831102018 | 63 | 283 | 0.0 | 2.0 | 0.00 | 0.00 | 0.00 | 65 | 1019.6 |
| 20260831101537 | 63 | 283 | 0.0 | 1.0 | 0.00 | 0.00 | 0.00 | 65 | 1019.5 |
| 20260831101019 | 63 | 282 | 0.0 | 3.0 | 0.00 | 0.00 | 0.00 | 64 | 1019.6 |
| 20260831100508 | 63 | 282 | 0.0 | 3.0 | 0.00 | 0.00 | 0.00 | 64 | 1019.5 |
| 20260831100012 | 63 | 287 | 0.0 | 2.0 | 0.00 | 0.00 | 0.00 | 63 | 1019.3 |
| 20260831095510 | 63 | 287 | 0.0 | 2.0 | 0.00 | 0.00 | 0.00 | 63 | 1019.2 |
| 20260831095007 | 63 | 279 | 0.0 | 2.0 | 0.00 | 0.00 | 0.00 | 65 | 1019.1 |
| 20260831094512 | 63 | 279 | 0.0 | 5.0 | 0.00 | 0.00 | 0.00 | 67 | 1019.2 |
| 20260831094007 | 63 | 285 | 0.0 | 5.0 | 0.00 | 0.00 | 0.00 | 66 | 1019.0 |
| 20260831093511 | 63 | 283 | 0.0 | 4.0 | 0.00 | 0.00 | 0.00 | 67 | 1018.9 |
| 20260831093027 | 63 | 279 | 1.0 | 4.0 | 0.00 | 0.00 | 0.00 | 67 | 1019.0 |
| 20260831092513 | 63 | 281 | 0.0 | 2.0 | 0.00 | 0.00 | 0.00 | 67 | 1019.0 |
| 20260831092008 | 63 | 281 | 0.0 | 3.0 | 0.00 | 0.00 | 0.00 | 68 | 1018.9 |
| 20260831091515 | 63 | 280 | 0.0 | 3.0 | 0.00 | 0.00 | 0.00 | 68 | 1019.0 |
| 20260831091008 | 63 | 283 | 0.0 | 4.0 | 0.00 | 0.00 | 0.00 | 69 | 1019.0 |
| 20260831090510 | 63 | 283 | 2.0 | 4.0 | 0.00 | 0.00 | 0.00 | 69 | 1018.8 |
| 20260831090015 | 63 | 283 | 1.0 | 3.0 | 0.00 | 0.00 | 0.00 | 69 | 1018.9 |
| 20260831085510 | 63 | 279 | 1.0 | 3.0 | 0.00 | 0.00 | 0.00 | 69 | 1019.0 |
| 20260831085012 | 64 | 282 | 0.0 | 1.0 | 0.00 | 0.00 | 0.00 | 65 | 1019.0 |
| 20260831084514 | 64 | 282 | 0.0 | 2.0 | 0.00 | 0.00 | 0.00 | 64 | 1019.0 |
| 20260831084007 | 64 | 282 | 0.0 | 2.0 | 0.00 | 0.00 | 0.00 | 66 | 1019.1 |
| 20260831083507 | 64 | 282 | 0.0 | 1.0 | 0.00 | 0.00 | 0.00 | 64 | 1019.0 |
| 20260831083013 | 65 | 282 | 0.0 | 2.0 | 0.00 | 0.00 | 0.00 | 65 | 1018.9 |
| 20260831082508 | 65 | 282 | 0.0 | 2.0 | 0.00 | 0.00 | 0.00 | 63 | 1018.9 |
| 20260831082013 | 65 | 282 | 0.0 | 2.0 | 0.00 | 0.00 | 0.00 | 62 | 1018.9 |
| 20260831081515 | 66 | 282 | 0.0 | 2.0 | 0.00 | 0.00 | 0.00 | 62 | 1018.9 |
| 20260831081013 | 66 | 279 | 0.0 | 1.0 | 0.00 | 0.00 | 0.00 | 59 | 1018.9 |
| 20260831080508 | 66 | 279 | 0.0 | 3.0 | 0.00 | 0.00 | 0.00 | 58 | 1019.0 |
| 20260831080021 | 66 | 279 | 1.0 | 3.0 | 0.00 | 0.00 | 0.00 | 56 | 1019.1 |
| 20260831075510 | 66 | 279 | 0.0 | 2.0 | 0.00 | 0.00 | 0.00 | 58 | 1019.2 |
| 20260831075009 | 66 | 279 | 0.0 | 2.0 | 0.00 | 0.00 | 0.00 | 58 | 1019.2 |
| 20260831074520 | 66 | 279 | 1.0 | 3.0 | 0.00 | 0.00 | 0.00 | 57 | 1019.3 |
| 20260831074010 | 66 | 279 | 0.0 | 4.0 | 0.00 | 0.00 | 0.00 | 59 | 1019.2 |
| 20260831073511 | 66 | 270 | 1.0 | 9.0 | 0.00 | 0.00 | 0.00 | 60 | 1019.2 |
| 20260831073018 | 66 | 279 | 1.0 | 9.0 | 0.00 | 0.00 | 0.00 | 58 | 1019.3 |
| 20260831072507 | 64 | 279 | 3.0 | 9.0 | 0.00 | 0.00 | 0.00 | 57 | 1019.2 |
| 20260831072010 | 63 | 286 | 0.0 | 2.0 | 0.00 | 0.00 | 0.00 | 69 | 1019.3 |
| 20260831071527 | 63 | 279 | 0.0 | 1.0 | 0.00 | 0.00 | 0.00 | 77 | 1019.3 |
| 20260831071012 | 63 | 279 | 0.0 | 0.0 | 0.00 | 0.00 | 0.00 | 78 | 1019.3 |
| 20260831070511 | 63 | 279 | 0.0 | 3.0 | 0.00 | 0.00 | 0.00 | 77 | 1019.3 |
| 20260831070016 | 63 | 279 | 0.0 | 3.0 | 0.00 | 0.00 | 0.00 | 78 | 1019.4 |
| 20260831065512 | 63 | 279 | 0.0 | 3.0 | 0.00 | 0.00 | 0.00 | 77 | 1019.5 |
| 20260831065010 | 63 | 279 | 0.0 | 2.0 | 0.00 | 0.00 | 0.00 | 77 | 1019.4 |
| 20260831064517 | 63 | 279 | 0.0 | 0.0 | 0.00 | 0.00 | 0.00 | 76 | 1019.4 |
| 20260831064011 | 63 | 279 | 0.0 | 5.0 | 0.00 | 0.00 | 0.00 | 75 | 1019.6 |
| 20260831063511 | 63 | 279 | 0.0 | 5.0 | 0.00 | 0.00 | 0.00 | 76 | 1019.7 |
| 20260831063019 | 63 | 279 | 2.0 | 5.0 | 0.00 | 0.00 | 0.00 | 76 | 1019.7 |
| 20260831062513 | 63 | 279 | 0.0 | 4.0 | 0.00 | 0.00 | 0.00 | 75 | 1019.5 |
| 20260831062011 | 64 | 283 | 0.0 | 1.0 | 0.00 | 0.00 | 0.00 | 75 | 1019.6 |
| 20260831061519 | 64 | 283 | 0.0 | 2.0 | 0.00 | 0.00 | 0.00 | 75 | 1019.7 |
| 20260831061011 | 64 | 283 | 0.0 | 2.0 | 0.00 | 0.00 | 0.00 | 75 | 1019.6 |
| 20260831060512 | 64 | 284 | 0.0 | 2.0 | 0.00 | 0.00 | 0.00 | 75 | 1019.5 |
| 20260831060021 | 64 | 279 | 0.0 | 2.0 | 0.00 | 0.00 | 0.00 | 74 | 1020.0 |
| 20260831055511 | 65 | 279 | 0.0 | 2.0 | 0.00 | 0.00 | 0.00 | 75 | 1020.2 |
| 20260831055011 | 65 | 279 | 0.0 | 3.0 | 0.00 | 0.00 | 0.00 | 74 | 1020.0 |
| 20260831054519 | 65 | 279 | 1.0 | 3.0 | 0.00 | 0.00 | 0.00 | 73 | 1019.9 |
| 20260831054013 | 66 | 279 | 1.0 | 3.0 | 0.00 | 0.00 | 0.00 | 71 | 1019.9 |
| 20260831053515 | 66 | 279 | 0.0 | 2.0 | 0.00 | 0.00 | 0.00 | 69 | 1020.0 |
| 20260831053022 | 66 | 279 | 0.0 | 2.0 | 0.00 | 0.00 | 0.00 | 69 | 1020.0 |
| 20260831052513 | 67 | 279 | 0.0 | 1.0 | 0.00 | 0.00 | 0.00 | 65 | 1020.2 |
| 20260831052015 | 67 | 279 | 0.0 | 1.0 | 0.00 | 0.00 | 0.00 | 63 | 1020.2 |
| 20260831051521 | 67 | 279 | 0.0 | 2.0 | 0.00 | 0.00 | 0.00 | 60 | 1020.2 |
| 20260831051012 | 67 | 279 | 0.0 | 3.0 | 0.00 | 0.00 | 0.00 | 57 | 1020.2 |
| 20260831050515 | 66 | 279 | 2.0 | 3.0 | 0.00 | 0.00 | 0.00 | 56 | 1020.2 |
| 20260831050023 | 67 | 285 | 1.0 | 3.0 | 0.00 | 0.00 | 0.00 | 56 | 1020.3 |
| 20260831045512 | 67 | 279 | 0.0 | 3.0 | 0.00 | 0.00 | 0.00 | 55 | 1020.3 |
| 20260831045012 | 67 | 279 | 0.0 | 4.0 | 0.00 | 0.00 | 0.00 | 55 | 1020.3 |
| 20260831044521 | 67 | 279 | 2.0 | 4.0 | 0.00 | 0.00 | 0.00 | 55 | 1020.4 |
| 20260831044014 | 67 | 287 | 0.0 | 3.0 | 0.00 | 0.00 | 0.00 | 55 | 1020.4 |
| 20260831043512 | 67 | 279 | 1.0 | 5.0 | 0.00 | 0.00 | 0.00 | 55 | 1020.4 |
| 20260831043020 | 67 | 285 | 0.0 | 7.0 | 0.00 | 0.00 | 0.00 | 55 | 1020.5 |
| 20260831042514 | 67 | 279 | 3.0 | 7.0 | 0.00 | 0.00 | 0.00 | 55 | 1020.5 |
| 20260831042012 | 67 | 279 | 2.0 | 7.0 | 0.00 | 0.00 | 0.00 | 55 | 1020.6 |
| 20260831041523 | 67 | 279 | 3.0 | 7.0 | 0.00 | 0.00 | 0.00 | 54 | 1020.5 |
| 20260831041016 | 67 | 275 | 1.0 | 5.0 | 0.00 | 0.00 | 0.00 | 53 | 1020.3 |
| 20260831040508 | 67 | 279 | 1.0 | 4.0 | 0.00 | 0.00 | 0.00 | 53 | 1020.2 |
| 20260831040009 | 67 | 279 | 2.0 | 4.0 | 0.00 | 0.00 | 0.00 | 53 | 1020.2 |
| 20260831035509 | 67 | 279 | 1.0 | 3.0 | 0.00 | 0.00 | 0.00 | 54 | 1020.0 |
| 20260831035007 | 67 | 279 | 0.0 | 6.0 | 0.00 | 0.00 | 0.00 | 54 | 1020.1 |
| 20260831034519 | 67 | 279 | 1.0 | 7.0 | 0.00 | 0.00 | 0.00 | 54 | 1020.3 |
| 20260831034013 | 67 | 279 | 2.0 | 7.0 | 0.00 | 0.00 | 0.00 | 55 | 1020.3 |
| 20260831033514 | 67 | 279 | 2.0 | 4.0 | 0.00 | 0.00 | 0.00 | 55 | 1020.4 |
| 20260831033034 | 67 | 279 | 1.0 | 4.0 | 0.00 | 0.00 | 0.00 | 56 | 1020.4 |
| 20260831032504 | 67 | 279 | 2.0 | 4.0 | 0.00 | 0.00 | 0.00 | 56 | 1020.4 |
| 20260831032002 | 67 | 270 | 1.0 | 4.0 | 0.00 | 0.00 | 0.00 | 57 | 1020.1 |
| 20260831031516 | 67 | 279 | 0.0 | 4.0 | 0.00 | 0.00 | 0.00 | 59 | 1019.7 |
| 20260831031007 | 67 | 287 | 0.0 | 0.0 | 0.00 | 0.00 | 0.00 | 60 | 1019.8 |
| 20260831030506 | 67 | 287 | 0.0 | 0.0 | 0.00 | 0.00 | 0.00 | 62 | 1019.6 |
| 20260831030008 | 67 | 287 | 0.0 | 1.0 | 0.00 | 0.00 | 0.00 | 62 | 1019.7 |
| 20260831025508 | 67 | 287 | 0.0 | 1.0 | 0.00 | 0.00 | 0.00 | 62 | 1019.7 |
| 20260831025010 | 67 | 270 | 0.0 | 1.0 | 0.00 | 0.00 | 0.00 | 61 | 1019.8 |
| 20260831024514 | 67 | 279 | 0.0 | 1.0 | 0.00 | 0.00 | 0.00 | 61 | 1019.8 |
| 20260831024012 | 68 | 279 | 0.0 | 2.0 | 0.00 | 0.00 | 0.00 | 61 | 1019.8 |
| 20260831023513 | 68 | 279 | 0.0 | 2.0 | 0.00 | 0.00 | 0.00 | 60 | 1019.6 |
| 20260831023025 | 68 | 282 | 0.0 | 1.0 | 0.00 | 0.00 | 0.00 | 60 | 1019.5 |
| 20260831022514 | 68 | 282 | 0.0 | 3.0 | 0.00 | 0.00 | 0.00 | 60 | 1019.4 |
| 20260831022015 | 68 | 282 | 0.0 | 4.0 | 0.00 | 0.00 | 0.00 | 60 | 1019.3 |
| 20260831021510 | 69 | 282 | 1.0 | 4.0 | 0.00 | 0.00 | 0.00 | 60 | 1019.2 |
| 20260831021003 | 69 | 279 | 0.0 | 4.0 | 0.00 | 0.00 | 0.00 | 55 | 1019.1 |
| 20260831020503 | 69 | 279 | 2.0 | 4.0 | 0.00 | 0.00 | 0.00 | 55 | 1019.0 |
| 20260831020004 | 70 | 287 | 0.0 | 2.0 | 0.00 | 0.00 | 0.00 | 54 | 1019.0 |
| 20260831015505 | 70 | 286 | 0.0 | 1.0 | 0.00 | 0.00 | 0.00 | 55 | 1018.9 |
| 20260831015007 | 70 | 286 | 0.0 | 1.0 | 0.00 | 0.00 | 0.00 | 54 | 1018.9 |
| 20260831014509 | 71 | 286 | 0.0 | 2.0 | 0.00 | 0.00 | 0.00 | 54 | 1019.0 |
| 20260831014008 | 71 | 286 | 0.0 | 2.0 | 0.00 | 0.00 | 0.00 | 52 | 1019.0 |
| 20260831013510 | 72 | 287 | 1.0 | 4.0 | 0.00 | 0.00 | 0.00 | 51 | 1019.0 |
| 20260831013017 | 72 | 275 | 1.0 | 4.0 | 0.00 | 0.00 | 0.00 | 50 | 1018.9 |
| 20260831012511 | 73 | 270 | 1.0 | 4.0 | 0.00 | 0.00 | 0.00 | 49 | 1018.9 |
| 20260831012014 | 73 | 270 | 0.0 | 0.0 | 0.00 | 0.00 | 0.00 | 50 | 1018.9 |
| 20260831011526 | 73 | 270 | 0.0 | 2.0 | 0.00 | 0.00 | 0.00 | 48 | 1018.9 |
| 20260831011015 | 74 | 279 | 0.0 | 2.0 | 0.00 | 0.00 | 0.00 | 49 | 1018.9 |
| 20260831010516 | 74 | 285 | 0.0 | 2.0 | 0.00 | 0.00 | 0.00 | 51 | 1018.8 |
| 20260831010003 | 74 | 283 | 0.0 | 2.0 | 0.00 | 0.00 | 0.00 | 48 | 1018.8 |
| 20260831005503 | 74 | 283 | 0.0 | 0.0 | 0.00 | 0.00 | 0.00 | 47 | 1018.9 |
| 20260831005006 | 74 | 283 | 0.0 | 0.0 | 0.00 | 0.00 | 0.00 | 48 | 1018.9 |
| 20260831004509 | 75 | 282 | 0.0 | 0.0 | 0.00 | 0.00 | 0.00 | 48 | 1019.0 |
| 20260831004008 | 75 | 282 | 0.0 | 0.0 | 0.00 | 0.00 | 0.00 | 47 | 1019.1 |
| 20260831003511 | 75 | 283 | 0.0 | 0.0 | 0.00 | 0.00 | 0.00 | 48 | 1019.2 |
| 20260831003016 | 75 | 283 | 0.0 | 1.0 | 0.00 | 0.00 | 0.00 | 47 | 1019.2 |
| 20260831002510 | 75 | 284 | 0.0 | 2.0 | 0.00 | 0.00 | 0.00 | 47 | 1019.3 |
| 20260831002011 | 75 | 291 | 0.0 | 2.0 | 0.00 | 0.00 | 0.00 | 46 | 1019.3 |
| 20260831001520 | 75 | 288 | 0.0 | 1.0 | 0.00 | 0.00 | 0.00 | 46 | 1019.3 |
| 20260831001013 | 75 | 289 | 0.0 | 0.0 | 0.00 | 0.00 | 0.00 | 45 | 1019.2 |
| 20260831000512 | 75 | 291 | 0.0 | 0.0 | 0.00 | 0.00 | 0.00 | 44 | 1019.2 |
| 20260831000028 | 75 | 293 | 0.0 | 1.0 | 0.00 | 0.00 | 0.00 | 45 | 1019.4 |
| 20260830235514 | 75 | 288 | 0.0 | 1.0 | 0.00 | 0.00 | 0.00 | 46 | 1019.5 |
| 20260830235016 | 75 | 287 | 0.0 | 1.0 | 0.00 | 0.00 | 0.00 | 44 | 1019.4 |
| 20260830234505 | 75 | 282 | 0.0 | 1.0 | 0.00 | 0.00 | 0.00 | 45 | 1019.5 |
| 20260830234007 | 75 | 284 | 0.0 | 1.0 | 0.00 | 0.00 | 0.00 | 46 | 1019.4 |
| 20260830233508 | 75 | 287 | 0.0 | 2.0 | 0.00 | 0.00 | 0.00 | 44 | 1019.5 |
| 20260830233012 | 75 | 283 | 0.0 | 2.0 | 0.00 | 0.00 | 0.00 | 44 | 1019.3 |
| 20260830232510 | 75 | 283 | 0.0 | 3.0 | 0.00 | 0.00 | 0.00 | 43 | 1019.2 |
| 20260830232010 | 75 | 284 | 0.0 | 5.0 | 0.00 | 0.00 | 0.00 | 43 | 1019.2 |
| 20260830231518 | 75 | 284 | 2.0 | 5.0 | 0.00 | 0.00 | 0.00 | 43 | 1019.2 |
| 20260830231012 | 75 | 285 | 2.0 | 5.0 | 0.00 | 0.00 | 0.00 | 43 | 1019.2 |
| 20260830230513 | 75 | 281 | 0.0 | 2.0 | 0.00 | 0.00 | 0.00 | 42 | 1019.3 |
| 20260830230024 | 74 | 282 | 0.0 | 3.0 | 0.00 | 0.00 | 0.00 | 41 | 1019.4 |
| 20260830225515 | 74 | 283 | 0.0 | 4.0 | 0.00 | 0.00 | 0.00 | 43 | 1019.3 |
| 20260830225014 | 75 | 287 | 1.0 | 4.0 | 0.00 | 0.00 | 0.00 | 43 | 1019.2 |
| 20260830224531 | 75 | 288 | 0.0 | 3.0 | 0.00 | 0.00 | 0.00 | 43 | 1019.2 |
| 20260830224016 | 75 | 285 | 2.0 | 3.0 | 0.00 | 0.00 | 0.00 | 41 | 1018.8 |
| 20260830223505 | 75 | 286 | 0.0 | 3.0 | 0.00 | 0.00 | 0.00 | 42 | 1019.1 |
| 20260830223010 | 74 | 283 | 1.0 | 4.0 | 0.00 | 0.00 | 0.00 | 42 | 1018.9 |
| 20260830222507 | 74 | 279 | 0.0 | 7.0 | 0.00 | 0.00 | 0.00 | 41 | 1018.9 |
| 20260830222013 | 74 | 279 | 2.0 | 7.0 | 0.00 | 0.00 | 0.00 | 40 | 1018.9 |
| 20260830221515 | 75 | 287 | 2.0 | 8.0 | 0.00 | 0.00 | 0.00 | 41 | 1019.0 |
| 20260830221011 | 75 | 287 | 2.0 | 8.0 | 0.00 | 0.00 | 0.00 | 41 | 1018.9 |
| 20260830220511 | 75 | 288 | 4.0 | 9.0 | 0.00 | 0.00 | 0.00 | 40 | 1018.9 |
| 20260830220022 | 75 | 281 | 3.0 | 9.0 | 0.00 | 0.00 | 0.00 | 39 | 1019.0 |
| 20260830215515 | 75 | 279 | 4.0 | 14.0 | 0.00 | 0.00 | 0.00 | 39 | 1019.1 |
| 20260830215016 | 75 | 279 | 7.0 | 14.0 | 0.00 | 0.00 | 0.00 | 39 | 1019.3 |
| 20260830214528 | 75 | 287 | 3.0 | 9.0 | 0.00 | 0.00 | 0.00 | 40 | 1019.6 |
| 20260830214013 | 75 | 279 | 1.0 | 5.0 | 0.00 | 0.00 | 0.00 | 40 | 1019.7 |
| 20260830213516 | 75 | 279 | 2.0 | 10.0 | 0.00 | 0.00 | 0.00 | 40 | 1019.8 |
| 20260830213029 | 75 | 279 | 1.0 | 10.0 | 0.00 | 0.00 | 0.00 | 41 | 1019.9 |
| 20260830212514 | 75 | 279 | 2.0 | 9.0 | 0.00 | 0.00 | 0.00 | 43 | 1020.1 |
| 20260830212006 | 74 | 275 | 2.0 | 4.0 | 0.00 | 0.00 | 0.00 | 43 | 1020.2 |
| 20260830211513 | 74 | 287 | 1.0 | 9.0 | 0.00 | 0.00 | 0.00 | 45 | 1020.2 |
| 20260830211014 | 74 | 284 | 2.0 | 13.0 | 0.00 | 0.00 | 0.00 | 44 | 1020.3 |
| 20260830210511 | 74 | 279 | 5.0 | 13.0 | 0.00 | 0.00 | 0.00 | 43 | 1020.2 |
| 20260830210015 | 74 | 279 | 3.0 | 12.0 | 0.00 | 0.00 | 0.00 | 45 | 1020.2 |
| 20260830205513 | 75 | 275 | 4.0 | 12.0 | 0.00 | 0.00 | 0.00 | 46 | 1020.2 |
| 20260830205013 | 76 | 279 | 4.0 | 12.0 | 0.00 | 0.00 | 0.00 | 46 | 1020.2 |
| 20260830204524 | 76 | 304 | 5.0 | 12.0 | 0.00 | 0.00 | 0.00 | 44 | 1019.9 |
| 20260830204015 | 77 | 296 | 5.0 | 15.0 | 0.00 | 0.00 | 0.00 | 38 | 1019.7 |
| 20260830203516 | 77 | 279 | 6.0 | 15.0 | 0.00 | 0.00 | 0.00 | 38 | 1019.8 |
| 20260830203045 | 78 | 298 | 7.0 | 13.0 | 0.00 | 0.00 | 0.00 | 46 | 1020.3 |
| 20260830202516 | 78 | 285 | 1.0 | 3.0 | 0.00 | 0.00 | 0.00 | 47 | 1020.2 |
| 20260830202019 | 78 | 294 | 1.0 | 3.0 | 0.00 | 0.00 | 0.00 | 47 | 1020.0 |
| 20260830201532 | 78 | 9 | 0.0 | 3.0 | 0.00 | 0.00 | 0.00 | 49 | 1019.9 |
| 20260830201012 | 79 | 44 | 0.0 | 3.0 | 0.00 | 0.00 | 0.00 | 47 | 1019.7 |
| 20260830200510 | 78 | 227 | 0.0 | 4.0 | 0.00 | 0.00 | 0.00 | 47 | 1019.6 |
| 20260830200018 | 78 | 209 | 0.0 | 5.0 | 0.00 | 0.00 | 0.00 | 49 | 1019.5 |
| 20260830195512 | 78 | 86 | 2.0 | 8.0 | 0.00 | 0.00 | 0.00 | 51 | 1019.4 |
| 20260830195011 | 77 | 188 | 3.0 | 8.0 | 0.00 | 0.00 | 0.00 | 52 | 1019.2 |
| 20260830194521 | 75 | 239 | 1.0 | 4.0 | 0.00 | 0.00 | 0.00 | 59 | 1019.1 |
| 20260830194016 | 74 | 298 | 0.0 | 5.0 | 0.00 | 0.00 | 0.00 | 56 | 1018.9 |
| 20260830193513 | 73 | 68 | 1.0 | 5.0 | 0.00 | 0.00 | 0.00 | 55 | 1018.5 |
| 20260830193027 | 73 | 139 | 1.0 | 5.0 | 0.00 | 0.00 | 0.00 | 55 | 1018.4 |
| 20260830192516 | 73 | 130 | 1.0 | 5.0 | 0.00 | 0.00 | 0.00 | 50 | 1018.5 |
| 20260830192014 | 75 | 216 | 2.0 | 5.0 | 0.00 | 0.00 | 0.00 | 49 | 1018.5 |
| 20260830191530 | 76 | 205 | 1.0 | 4.0 | 0.00 | 0.00 | 0.00 | 53 | 1018.4 |
| 20260830191017 | 77 | 285 | 0.0 | 9.0 | 0.00 | 0.00 | 0.00 | 45 | 1018.5 |
| 20260830190519 | 78 | 300 | 3.0 | 11.0 | 0.00 | 0.00 | 0.00 | 48 | 1018.6 |
| 20260830190037 | 79 | 40 | 1.0 | 13.0 | 0.00 | 0.00 | 0.00 | 41 | 1018.9 |
| 20260830185508 | 81 | 259 | 4.0 | 13.0 | 0.00 | 0.00 | 0.00 | 37 | 1019.0 |
| 20260830185009 | 82 | 8 | 0.0 | 4.0 | 0.00 | 0.00 | 0.00 | 41 | 1018.7 |
| 20260830184529 | 83 | 306 | 1.0 | 6.0 | 0.00 | 0.00 | 0.00 | 43 | 1018.3 |
| 20260830184013 | 83 | 322 | 1.0 | 6.0 | 0.00 | 0.00 | 0.00 | 36 | 1018.0 |
| 20260830183514 | 83 | 56 | 2.0 | 6.0 | 0.00 | 0.00 | 0.00 | 37 | 1017.8 |
| 20260830183026 | 84 | 75 | 2.0 | 6.0 | 0.00 | 0.00 | 0.00 | 37 | 1017.8 |
| 20260830182515 | 83 | 49 | 1.0 | 6.0 | 0.00 | 0.00 | 0.00 | 36 | 1017.9 |
| 20260830182021 | 83 | 54 | 2.0 | 7.0 | 0.00 | 0.00 | 0.00 | 37 | 1017.9 |
| 20260830181530 | 83 | 44 | 1.0 | 8.0 | 0.00 | 0.00 | 0.00 | 35 | 1017.9 |
| 20260830181017 | 83 | 55 | 2.0 | 8.0 | 0.00 | 0.00 | 0.00 | 37 | 1017.9 |
| 20260830180518 | 83 | 67 | 3.0 | 7.0 | 0.00 | 0.00 | 0.00 | 38 | 1018.0 |
| 20260830180038 | 83 | 24 | 3.0 | 7.0 | 0.00 | 0.00 | 0.00 | 38 | 1017.9 |
| 20260830175517 | 84 | 64 | 3.0 | 7.0 | 0.00 | 0.00 | 0.00 | 35 | 1017.9 |
| 20260830175018 | 84 | 61 | 2.0 | 6.0 | 0.00 | 0.00 | 0.00 | 34 | 1018.0 |
| 20260830174514 | 84 | 80 | 1.0 | 5.0 | 0.00 | 0.00 | 0.00 | 36 | 1018.2 |
| 20260830174011 | 83 | 55 | 0.0 | 6.0 | 0.00 | 0.00 | 0.00 | 36 | 1018.3 |
| 20260830173512 | 83 | 71 | 1.0 | 6.0 | 0.00 | 0.00 | 0.00 | 37 | 1018.4 |
| 20260830173018 | 83 | 65 | 0.0 | 4.0 | 0.00 | 0.00 | 0.00 | 36 | 1018.4 |
| 20260830172517 | 82 | 75 | 0.0 | 6.0 | 0.00 | 0.00 | 0.00 | 36 | 1018.5 |
| 20260830172012 | 82 | 52 | 0.0 | 6.0 | 0.00 | 0.00 | 0.00 | 37 | 1018.6 |
| 20260830171528 | 81 | 36 | 2.0 | 6.0 | 0.00 | 0.00 | 0.00 | 38 | 1018.5 |
| 20260830171014 | 80 | 65 | 1.0 | 6.0 | 0.00 | 0.00 | 0.00 | 38 | 1018.6 |
| 20260830170515 | 80 | 65 | 2.0 | 6.0 | 0.00 | 0.00 | 0.00 | 38 | 1018.7 |
| 20260830170031 | 80 | 52 | 3.0 | 6.0 | 0.00 | 0.00 | 0.00 | 40 | 1018.7 |
| 20260830165516 | 80 | 38 | 2.0 | 6.0 | 0.00 | 0.00 | 0.00 | 41 | 1018.7 |
| 20260830165016 | 80 | 79 | 3.0 | 7.0 | 0.00 | 0.00 | 0.00 | 39 | 1018.7 |
| 20260830164533 | 80 | 61 | 3.0 | 8.0 | 0.00 | 0.00 | 0.00 | 39 | 1018.7 |
| 20260830164020 | 80 | 135 | 3.0 | 8.0 | 0.00 | 0.00 | 0.00 | 40 | 1018.7 |
| 20260830163519 | 81 | 57 | 4.0 | 8.0 | 0.00 | 0.00 | 0.00 | 42 | 1018.7 |
| 20260830163021 | 80 | 63 | 0.0 | 3.0 | 0.00 | 0.00 | 0.00 | 38 | 1018.7 |
| 20260830162512 | 79 | 60 | 0.0 | 3.0 | 0.00 | 0.00 | 0.00 | 40 | 1018.7 |
| 20260830162010 | 78 | 270 | 1.0 | 4.0 | 0.00 | 0.00 | 0.00 | 40 | 1018.7 |
| 20260830161522 | 78 | 19 | 1.0 | 6.0 | 0.00 | 0.00 | 0.00 | 39 | 1018.8 |
| 20260830161016 | 77 | 251 | 2.0 | 6.0 | 0.00 | 0.00 | 0.00 | 40 | 1019.0 |
| 20260830160516 | 77 | 44 | 2.0 | 8.0 | 0.00 | 0.00 | 0.00 | 40 | 1019.0 |
| 20260830160029 | 76 | 95 | 3.0 | 8.0 | 0.00 | 0.00 | 0.00 | 42 | 1019.0 |
| 20260830155518 | 76 | 319 | 2.0 | 9.0 | 0.00 | 0.00 | 0.00 | 44 | 1018.9 |
| 20260830155017 | 75 | 337 | 2.0 | 10.0 | 0.00 | 0.00 | 0.00 | 44 | 1018.9 |
| 20260830154516 | 75 | 231 | 4.0 | 10.0 | 0.00 | 0.00 | 0.00 | 45 | 1019.0 |
| 20260830154004 | 74 | 323 | 2.0 | 12.0 | 0.00 | 0.00 | 0.00 | 47 | 1019.2 |
| 20260830153508 | 73 | 252 | 4.0 | 12.0 | 0.00 | 0.00 | 0.00 | 49 | 1019.2 |
| 20260830153013 | 72 | 62 | 0.0 | 4.0 | 0.00 | 0.00 | 0.00 | 52 | 1019.3 |
| 20260830152508 | 71 | 270 | 1.0 | 4.0 | 0.00 | 0.00 | 0.00 | 54 | 1019.4 |
| 20260830152008 | 71 | 304 | 1.0 | 4.0 | 0.00 | 0.00 | 0.00 | 54 | 1019.3 |
| 20260830151520 | 70 | 275 | 1.0 | 4.0 | 0.00 | 0.00 | 0.00 | 53 | 1019.2 |
| 20260830151013 | 70 | 290 | 2.0 | 4.0 | 0.00 | 0.00 | 0.00 | 53 | 1019.2 |
| 20260830150515 | 70 | 283 | 1.0 | 5.0 | 0.00 | 0.00 | 0.00 | 53 | 1019.2 |
| 20260830150034 | 69 | 270 | 2.0 | 5.0 | 0.00 | 0.00 | 0.00 | 54 | 1019.2 |
| 20260830145517 | 69 | 270 | 2.0 | 5.0 | 0.00 | 0.00 | 0.00 | 53 | 1019.2 |
| 20260830145016 | 69 | 270 | 2.0 | 5.0 | 0.00 | 0.00 | 0.00 | 55 | 1019.0 |
| 20260830144536 | 68 | 270 | 1.0 | 4.0 | 0.00 | 0.00 | 0.00 | 54 | 1019.0 |
| 20260830144017 | 68 | 270 | 1.0 | 4.0 | 0.00 | 0.00 | 0.00 | 56 | 1019.0 |
| 20260830143517 | 68 | 285 | 1.0 | 3.0 | 0.00 | 0.00 | 0.00 | 57 | 1018.9 |
| 20260830143008 | 67 | 279 | 1.0 | 3.0 | 0.00 | 0.00 | 0.00 | 58 | 1019.0 |
| 20260830142507 | 67 | 270 | 1.0 | 3.0 | 0.00 | 0.00 | 0.00 | 57 | 1018.9 |
| 20260830142010 | 67 | 270 | 1.0 | 3.0 | 0.00 | 0.00 | 0.00 | 59 | 1018.9 |
| 20260830141516 | 66 | 270 | 1.0 | 3.0 | 0.00 | 0.00 | 0.00 | 59 | 1018.9 |
| 20260830141012 | 66 | 286 | 0.0 | 2.0 | 0.00 | 0.00 | 0.00 | 60 | 1018.8 |
| 20260830140512 | 66 | 285 | 0.0 | 2.0 | 0.00 | 0.00 | 0.00 | 62 | 1018.9 |
| 20260830140023 | 66 | 270 | 0.0 | 3.0 | 0.00 | 0.00 | 0.00 | 62 | 1018.9 |
| 20260830135516 | 66 | 281 | 1.0 | 3.0 | 0.00 | 0.00 | 0.00 | 63 | 1018.8 |
| 20260830135015 | 65 | 302 | 0.0 | 2.0 | 0.00 | 0.00 | 0.00 | 63 | 1018.7 |
| 20260830134533 | 65 | 304 | 0.0 | 3.0 | 0.00 | 0.00 | 0.00 | 63 | 1018.7 |
| 20260830134016 | 65 | 310 | 1.0 | 3.0 | 0.00 | 0.00 | 0.00 | 63 | 1018.7 |
| 20260830133516 | 65 | 296 | 1.0 | 2.0 | 0.00 | 0.00 | 0.00 | 62 | 1018.7 |
| 20260830133032 | 65 | 186 | 0.0 | 1.0 | 0.00 | 0.00 | 0.00 | 62 | 1018.6 |
| 20260830132519 | 65 | 185 | 0.0 | 1.0 | 0.00 | 0.00 | 0.00 | 61 | 1018.5 |
| 20260830132006 | 65 | 186 | 0.0 | 0.0 | 0.00 | 0.00 | 0.00 | 61 | 1018.5 |
| 20260830131523 | 65 | 184 | 0.0 | 1.0 | 0.00 | 0.00 | 0.00 | 61 | 1018.4 |
| 20260830131010 | 65 | 187 | 0.0 | 1.0 | 0.00 | 0.00 | 0.00 | 61 | 1018.4 |
| 20260830130519 | 65 | 187 | 0.0 | 1.0 | 0.00 | 0.00 | 0.00 | 60 | 1018.4 |
| 20260830130037 | 65 | 270 | 0.0 | 2.0 | 0.00 | 0.00 | 0.00 | 60 | 1018.4 |
| 20260830125516 | 65 | 270 | 0.0 | 2.0 | 0.00 | 0.00 | 0.00 | 60 | 1018.4 |
| 20260830125014 | 65 | 187 | 1.0 | 3.0 | 0.00 | 0.00 | 0.00 | 61 | 1018.4 |
| 20260830124532 | 65 | 238 | 0.0 | 3.0 | 0.00 | 0.00 | 0.00 | 61 | 1018.4 |
| 20260830124020 | 65 | 270 | 1.0 | 2.0 | 0.00 | 0.00 | 0.00 | 60 | 1018.4 |
| 20260830123516 | 65 | 270 | 0.0 | 1.0 | 0.00 | 0.00 | 0.00 | 60 | 1018.1 |
| 20260830123030 | 65 | 270 | 0.0 | 2.0 | 0.00 | 0.00 | 0.00 | 59 | 1018.0 |
| 20260830122518 | 65 | 198 | 0.0 | 4.0 | 0.00 | 0.00 | 0.00 | 58 | 1017.9 |
| 20260830122018 | 66 | 279 | 1.0 | 4.0 | 0.00 | 0.00 | 0.00 | 57 | 1018.2 |
| 20260830121531 | 66 | 283 | 0.0 | 2.0 | 0.00 | 0.00 | 0.00 | 57 | 1018.1 |
| 20260830121017 | 66 | 279 | 0.0 | 2.0 | 0.00 | 0.00 | 0.00 | 57 | 1017.9 |
| 20260830120518 | 66 | 287 | 0.0 | 2.0 | 0.00 | 0.00 | 0.00 | 57 | 1017.7 |
| 20260830120037 | 66 | 304 | 0.0 | 3.0 | 0.00 | 0.00 | 0.00 | 55 | 1017.5 |